Darstellungsparameter: Aktuell verwendete Einstellungen:
Skalierung der Graphiken ... ?
xyx+y,   Skalierungsfaktor:      Skalierung: Modus: x, Faktor: 1
Darstellungszeitraum ... ?
Vom - - bis: - -   Zeitraum: 24.02.2010 - 23.05.2010
Min/Max/Avg-Anzeige ... ?
Zeige MMA aktuell
Zeige MMA Monat
Zeige MMA alles
Zeige --A aktuell
Zeige --A Monat
Zeige --A alles
Keine MMA-Anzeige
MMA:
Average (ber die Originaldaten)
MMA-Basis: 24.02.2010 - 23.05.2010
Quicknavigation für Darstellung... ?
Tage:      1T, 2T, 3T, 5T -1T -2T -3T -5T +1T +2T +3T +5T
Wochen: 1W, 2W, 3W -1W -2W -3W +1W +2W +3W
Monate: 1M, 3M, 6M -1M -3M -6M +1M +3M +6M
Jahre:    1J, 3J, 5J, 10J -1J -3J -5J -10J +1J +3J +5J +10J
Nutze für die Darstellung ... ?
Originaldaten oder ...
Mittelwerte Minima Maxima auf...
Stundenbasis Tagesbasis Wochenbasis
Monatsbasis Jahresbasis      Datenbasis: Mittelwerte auf Tagesbasis
Darstellen als:
Statistik (Auto) Statistik J:M      Darstellung:
Zur Graphik,    zurück zur Übersicht aller Sensoren.
 
Tabellarische Datenbersicht: ?
 
Sensor: Nr:Datum:Temp:Abs-Feuchte:Windchill:Wind:
Aussen-T/F 1 24-02-2010 00:00:00 9.55 C 6.5 g/m*3 9.55 C 0 km/h
2 25-02-2010 00:00:00 9.58 C 5.92 g/m*3 9.58 C 0 km/h
3 26-02-2010 00:00:00 8.62667 C 5.33 g/m*3 8.63 C 0 km/h
4 27-02-2010 00:00:00 8.4025 C 4.07 g/m*3 8.4 C 0 km/h
5 28-02-2010 00:00:00 8.30667 C 5.5 g/m*3 8.31 C 0 km/h
6 01-03-2010 00:00:00 5.40917 C 3.85 g/m*3 5.41 C 0 km/h
7 02-03-2010 00:00:00 3.135 C 3.87 g/m*3 3.14 C 0 km/h
8 03-03-2010 00:00:00 2.9925 C 3.33 g/m*3 2.99 C 0 km/h
9 04-03-2010 00:00:00 2.47395 C 2.67 g/m*3 2.47 C 0 km/h
10 05-03-2010 00:00:00 0.77667 C 2.41 g/m*3 0.78 C 0 km/h
11 06-03-2010 00:00:00 -0.47083 C 3.38 g/m*3 -0.47 C 0 km/h
12 07-03-2010 00:00:00 -1.6825 C 2.27 g/m*3 -1.68 C 0 km/h
13 08-03-2010 00:00:00 -1.21083 C 1.92 g/m*3 -1.21 C 0 km/h
14 09-03-2010 00:00:00 -0.87167 C 1.76 g/m*3 -0.87 C 0 km/h
15 10-03-2010 00:00:00 1.41667 C 1.75 g/m*3 1.42 C 0 km/h
16 11-03-2010 00:00:00 0.40167 C 2.56 g/m*3 0.4 C 0 km/h
17 12-03-2010 00:00:00 1.61167 C 3.86 g/m*3 1.61 C 0 km/h
18 13-03-2010 00:00:00 4.36583 C 4.23 g/m*3 4.37 C 0 km/h
19 14-03-2010 00:00:00 5.79833 C 4.06 g/m*3 5.8 C 0 km/h
20 15-03-2010 00:00:00 6.445 C 5.04 g/m*3 6.45 C 0 km/h
21 16-03-2010 00:00:00 6.08067 C 5.63 g/m*3 6.08 C 0 km/h
22 17-03-2010 00:00:00 6.69417 C 4.48 g/m*3 6.69 C 0 km/h
23 18-03-2010 00:00:00 10.12333 C 4.54 g/m*3 10.12 C 0 km/h
24 19-03-2010 00:00:00 15.0225 C 4.66 g/m*3 15.02 C 0 km/h
25 20-03-2010 00:00:00 14.37667 C 8.46 g/m*3 14.38 C 0 km/h
Sensor: Nr:Datum:Temp:Abs-Feuchte:Windchill:Wind:
Aussen-T/F 26 21-03-2010 00:00:00 11.23667 C 8.65 g/m*3 11.24 C 0 km/h
27 22-03-2010 00:00:00 9.7575 C 7.03 g/m*3 9.76 C 0 km/h
28 23-03-2010 00:00:00 8.94 C 6.12 g/m*3 8.94 C 0 km/h
29 24-03-2010 00:00:00 11.9975 C 6.24 g/m*3 12 C 0 km/h
30 25-03-2010 00:00:00 14.27083 C 6.52 g/m*3 14.27 C 0 km/h
31 26-03-2010 00:00:00 10.0325 C 7.02 g/m*3 10.03 C 0 km/h
32 27-03-2010 00:00:00 9.34333 C 5.7 g/m*3 9.34 C 0 km/h
33 28-03-2010 00:00:00 9.93478 C 6.19 g/m*3 9.93 C 0 km/h
34 29-03-2010 00:00:00 11.88167 C 8.04 g/m*3 11.88 C 0 km/h
35 30-03-2010 00:00:00 12.70672 C 6.43 g/m*3 12.71 C 0 km/h
36 31-03-2010 00:00:00 8.18667 C 4.45 g/m*3 8.19 C 0 km/h
37 01-04-2010 00:00:00 5.84333 C 3.76 g/m*3 5.84 C 0 km/h
38 02-04-2010 00:00:00 6.48583 C 4.37 g/m*3 6.49 C 0 km/h
39 03-04-2010 00:00:00 9.73667 C 5.47 g/m*3 9.74 C 0 km/h
40 04-04-2010 00:00:00 8.98833 C 5.25 g/m*3 8.99 C 0 km/h
41 05-04-2010 00:00:00 9.15083 C 4.56 g/m*3 9.15 C 0 km/h
42 06-04-2010 00:00:00 10.38167 C 4.41 g/m*3 10.38 C 0 km/h
43 07-04-2010 00:00:00 13.61167 C 5.07 g/m*3 13.61 C 0 km/h
44 08-04-2010 00:00:00 12.375 C 6.96 g/m*3 12.38 C 0 km/h
45 09-04-2010 00:00:00 11.49917 C 5.91 g/m*3 11.5 C 0 km/h
46 10-04-2010 00:00:00 11.3575 C 4.66 g/m*3 11.36 C 0 km/h
47 11-04-2010 00:00:00 7.86667 C 4.35 g/m*3 7.87 C 0 km/h
48 12-04-2010 00:00:00 7.44958 C 5.35 g/m*3 7.45 C 0 km/h
49 13-04-2010 00:00:00 11.85583 C 6.16 g/m*3 11.86 C 0 km/h
50 14-04-2010 00:00:00 11.76417 C 4.66 g/m*3 11.76 C 0 km/h
Sensor: Nr:Datum:Temp:Abs-Feuchte:Windchill:Wind:
Aussen-T/F 51 15-04-2010 00:00:00 11.8575 C 5 g/m*3 11.86 C 0 km/h
52 16-04-2010 00:00:00 9.71583 C 4.32 g/m*3 9.72 C 0 km/h
53 17-04-2010 00:00:00 11.1225 C 4.54 g/m*3 11.12 C 0 km/h
54 18-04-2010 00:00:00 13.27917 C 4.52 g/m*3 13.28 C 0 km/h
55 19-04-2010 00:00:00 11.18333 C 5.12 g/m*3 11.18 C 0 km/h
56 20-04-2010 00:00:00 11.13833 C 5.11 g/m*3 11.14 C 0 km/h
57 21-04-2010 00:00:00 7.34417 C 3.84 g/m*3 7.34 C 0 km/h
58 22-04-2010 00:00:00 8.35333 C 3.82 g/m*3 8.35 C 0 km/h
59 23-04-2010 00:00:00 11.44917 C 4.09 g/m*3 11.45 C 0 km/h
60 24-04-2010 00:00:00 14.91167 C 4.56 g/m*3 14.91 C 0 km/h
61 25-04-2010 00:00:00 17.1075 C 5.25 g/m*3 17.11 C 0 km/h
62 26-04-2010 00:00:00 15.72269 C 7.07 g/m*3 15.72 C 0 km/h
63 27-04-2010 00:00:00 15.50417 C 6.31 g/m*3 15.5 C 0 km/h
64 28-04-2010 00:00:00 16.8925 C 6.33 g/m*3 16.89 C 0 km/h
65 29-04-2010 00:00:00 19.21417 C 6.68 g/m*3 19.21 C 0 km/h
66 30-04-2010 00:00:00 18.69583 C 7.11 g/m*3 18.7 C 0 km/h
67 01-05-2010 00:00:00 15.09917 C 6.78 g/m*3 15.1 C 0 km/h
68 02-05-2010 00:00:00 13.48583 C 7.64 g/m*3 13.49 C 0 km/h
69 03-05-2010 00:00:00 10.01667 C 6.94 g/m*3 10.02 C 0 km/h
70 04-05-2010 00:00:00 9.78833 C 5.53 g/m*3 9.79 C 0 km/h
71 05-05-2010 00:00:00 10.09083 C 3.78 g/m*3 10.09 C 0 km/h
72 06-05-2010 00:00:00 6.68167 C 6.78 g/m*3 6.68 C 0 km/h
73 07-05-2010 00:00:00 6.49417 C 6.66 g/m*3 6.49 C 0 km/h
74 08-05-2010 00:00:00 11.06218 C 6.38 g/m*3 11.06 C 0 km/h
75 09-05-2010 00:00:00 12.575 C 6.93 g/m*3 12.58 C 0 km/h
Sensor: Nr:Datum:Temp:Abs-Feuchte:Windchill:Wind:
Aussen-T/F 76 10-05-2010 00:00:00 11.99917 C 6.67 g/m*3 12 C 0 km/h
77 11-05-2010 00:00:00 11.53167 C 6.84 g/m*3 11.53 C 0 km/h
78 12-05-2010 00:00:00 8.62333 C 6.33 g/m*3 8.62 C 0 km/h
79 13-05-2010 00:00:00 8.07667 C 6.31 g/m*3 8.08 C 0 km/h
80 14-05-2010 00:00:00 8.97333 C 7.22 g/m*3 8.97 C 0 km/h
81 15-05-2010 00:00:00 10.6825 C 5.92 g/m*3 10.68 C 0 km/h
82 16-05-2010 00:00:00 13.32917 C 5.32 g/m*3 13.33 C 0 km/h
83 17-05-2010 00:00:00 10.56917 C 7.13 g/m*3 10.57 C 0 km/h
84 18-05-2010 00:00:00 11.44333 C 6.07 g/m*3 11.44 C 0 km/h
85 19-05-2010 00:00:00 10.30583 C 6.32 g/m*3 10.31 C 0 km/h
86 20-05-2010 00:00:00 12.64034 C 6.31 g/m*3 12.64 C 0 km/h
87 21-05-2010 00:00:00 16.54333 C 7.66 g/m*3 16.54 C 0 km/h
88 22-05-2010 00:00:00 18.32583 C 7.75 g/m*3 18.33 C 0 km/h
89 23-05-2010 00:00:00 20.32083 C 8.65 g/m*3 20.32 C 0 km/h

Maximal/Minimal-Werte vom 24.02.2010 - 23.05.2010

Sensor Min Max Avg
Temp
(Aussen-T/F)
-7.5 °C
08-03-2010  07:15:03
30.2 °C
25-04-2010  16:59:03
9.73 °C
Abs-Feuchte
(Aussen-T/F)
1.75 g/m*3
10-03-2010  00:00:00
8.65 g/m*3
21-03-2010  00:00:00
5.34 g/m*3
Windchill
(Aussen-T/F)
-1.68 C
07-03-2010  00:00:00
20.32 C
23-05-2010  00:00:00
9.62 C

Die Daten stammen von einer Davis Vantage Pro 2 Wetter-Station und werden unter Linux mit der Software wview2wettercgi und aufbereitet. Alle Angaben erfolgen ohne Gewähr für ihre Vollständigkeit oder Richtigkeit.
Kontakt: Rainer Krienke krienke@uni-koblenz.de . Meine Webseiten an der Uni Koblenz oder privat.
Version: $Revision: 0.78 $